Weather History for Krasnodar, Russia

Change the Weather History Date:

Friday, February 1, 2013

  Actual Average Record
Temperature  
Mean Temperature 40 °F -  
Max Temperature 46 °F - - ()
Min Temperature 33 °F - - ()
Degree Days  
Heating Degree Days 26    
Moisture  
Dew Point 35 °F    
Average Humidity 84    
Maximum Humidity 100    
Minimum Humidity 57    
Precipitation  
Precipitation 0.00 in 0.05 in - ()
Sea Level Pressure  
Sea Level Pressure 29.79 in    
Wind  
Wind Speed 7 mph ()    
Max Wind Speed 18 mph    
Max Gust Speed 25 mph    
Visibility 5.2 miles    
Events Rain    
T = Trace of Precipitation, MM = Missing Value Source: Averaged Metar Reports

Daily Weather History Graph

Daily Weather History Graph

Search for Another Location

Airport:

Trip Planner

Search our weather history database for the weather conditions in past years. The results will help you decide how hot, cold, wet, or windy it might be!

Date:

Astronomy

Feb. 01, 2013 Rise Set
Actual Time 8:43 AM MSK 6:31 PM MSK
Civil Twilight 8:12 AM MSK 7:02 PM MSK
Nautical Twilight 7:36 AM MSK 7:37 PM MSK
Astronomical Twilight 7:02 AM MSK 8:12 PM MSK
Moon No Moon Rise 10:47 AM MSK (2/1)
Length of Visible Light 10h 50m
Length of Day
9h 47m
Waning Gibbous, 74% of the Moon is Illuminated
Feb 1
Waning Gibbous
Feb 3
Last Quarter
Feb 10
New
Feb 18
First Quarter
Feb 26
Full

Hourly Weather History & Observations

Time (MSK) Temp. Windchill Dew Point Humidity Pressure Visibility Wind Dir Wind Speed Gust Speed Precip Events Conditions
12:00 AM 37.4 °F 33.9 °F 35.6 °F 93% 29.83 in - SSE 4.5 mph - N/A   Overcast
12:30 AM 37.4 °F 33.9 °F 35.6 °F 93% 29.83 in - SSE 4.5 mph - N/A   Mostly Cloudy
1:00 AM 35.6 °F 31.8 °F 35.6 °F 100% 29.80 in - South 4.5 mph - N/A   Mostly Cloudy
1:30 AM 33.8 °F 29.7 °F 33.8 °F 100% 29.83 in 1.5 mi SSW 4.5 mph - N/A   Scattered Clouds
2:00 AM 35.6 °F - 35.6 °F 100% 29.80 in 1.1 mi SSW 2.2 mph - N/A   Scattered Clouds
2:30 AM 33.8 °F - 33.8 °F 100% 29.80 in 0.7 mi Variable 2.2 mph - N/A   Scattered Clouds
3:00 AM 33.8 °F 27.9 °F 33.8 °F 100% 29.80 in 3.1 mi South 6.7 mph - N/A   Mostly Cloudy
3:30 AM 35.6 °F 30.0 °F 33.8 °F 93% 29.80 in - South 6.7 mph - N/A   Mostly Cloudy
4:00 AM 35.6 °F 30.0 °F 35.6 °F 100% 29.80 in 3.1 mi South 6.7 mph - N/A   Mostly Cloudy
4:30 AM 35.6 °F 30.0 °F 33.8 °F 93% 29.80 in 3.1 mi South 6.7 mph - N/A   Mostly Cloudy
5:00 AM 35.6 °F 30.0 °F 33.8 °F 93% 29.80 in 4.3 mi South 6.7 mph - N/A   Mostly Cloudy
5:30 AM 35.6 °F 30.0 °F 33.8 °F 93% 29.80 in 3.7 mi South 6.7 mph - N/A   Mostly Cloudy
6:00 AM 35.6 °F 31.8 °F 33.8 °F 93% 29.80 in 5.6 mi South 4.5 mph - N/A   Mostly Cloudy
6:30 AM 35.6 °F 31.8 °F 33.8 °F 93% 29.80 in 4.3 mi South 4.5 mph - N/A   Mostly Cloudy
7:00 AM 35.6 °F 30.0 °F 33.8 °F 93% 29.77 in - SSW 6.7 mph - N/A   Clear
7:30 AM 37.4 °F 30.9 °F 32.0 °F 81% 29.77 in - SSW 8.9 mph - N/A   Clear
8:00 AM 37.4 °F 30.9 °F 32.0 °F 81% 29.80 in 6.2 mi SW 8.9 mph - N/A   Mostly Cloudy
8:30 AM 37.4 °F 30.9 °F 32.0 °F 81% 29.80 in - SSW 8.9 mph - N/A   Clear
9:00 AM 37.4 °F 30.9 °F 32.0 °F 81% 29.80 in - SSW 8.9 mph - N/A   Clear
9:30 AM 37.4 °F 29.9 °F 33.8 °F 87% 29.80 in - SSW 11.2 mph - N/A   Clear
10:00 AM 39.2 °F 33.1 °F 33.8 °F 81% 29.80 in - SSW 8.9 mph - N/A   Clear
10:30 AM 41.0 °F 34.4 °F 33.8 °F 76% 29.80 in - SSW 11.2 mph - N/A   Clear
11:00 AM 41.0 °F 33.6 °F 35.6 °F 81% 29.80 in - South 13.4 mph 20.1 mph N/A   Clear
11:30 AM 42.8 °F 35.9 °F 35.6 °F 76% 29.80 in - South 13.4 mph 20.1 mph N/A   Clear
12:00 PM 44.6 °F 38.2 °F 35.6 °F 71% 29.80 in - South 13.4 mph 20.1 mph N/A   Clear
12:30 PM 46.4 °F 40.5 °F 35.6 °F 66% 29.77 in 6.2 mi South 13.4 mph 20.1 mph N/A   Mostly Cloudy
1:00 PM 46.4 °F 39.3 °F 33.8 °F 62% 29.77 in 6.2 mi SSW 17.9 mph 24.6 mph N/A   Mostly Cloudy
1:30 PM 46.4 °F 39.3 °F 33.8 °F 62% 29.77 in 6.2 mi SSW 17.9 mph 24.6 mph N/A   Mostly Cloudy
2:00 PM 46.4 °F 39.9 °F 33.8 °F 62% 29.77 in 6.2 mi SSW 15.7 mph 22.4 mph N/A   Mostly Cloudy
2:30 PM 46.4 °F 39.9 °F 32.0 °F 57% 29.77 in 6.2 mi SSW 15.7 mph 22.4 mph N/A   Mostly Cloudy
3:00 PM 44.6 °F 37.0 °F 32.0 °F 61% 29.77 in 6.2 mi SSW 17.9 mph 24.6 mph N/A   Mostly Cloudy
3:30 PM 44.6 °F 37.6 °F 32.0 °F 61% 29.77 in 6.2 mi SSW 15.7 mph 22.4 mph N/A   Mostly Cloudy
4:00 PM 44.6 °F 38.2 °F 33.8 °F 66% 29.77 in 6.2 mi SW 13.4 mph - N/A   Mostly Cloudy
4:30 PM 44.6 °F 38.9 °F 35.6 °F 71% 29.77 in 6.2 mi SW 11.2 mph - N/A   Mostly Cloudy
5:00 PM 44.6 °F 38.9 °F 35.6 °F 71% 29.77 in 6.2 mi SW 11.2 mph - N/A   Mostly Cloudy
5:30 PM 44.6 °F 39.8 °F 35.6 °F 71% 29.77 in 6.2 mi SW 8.9 mph - N/A   Mostly Cloudy
6:00 PM 42.8 °F 35.9 °F 37.4 °F 81% 29.77 in 6.2 mi WSW 13.4 mph - N/A Rain Light Rain Showers
6:30 PM 42.8 °F 37.6 °F 37.4 °F 81% 29.80 in 6.2 mi WSW 8.9 mph - N/A Rain Light Rain Showers
7:00 PM 41.0 °F 35.4 °F 39.2 °F 93% 29.80 in 6.2 mi SW 8.9 mph - N/A Rain Light Rain Showers
7:30 PM 41.0 °F 35.4 °F 39.2 °F 93% 29.80 in 5.6 mi SW 8.9 mph - N/A Rain Light Rain Showers
8:00 PM 41.0 °F 35.4 °F 37.4 °F 87% 29.80 in 6.2 mi SW 8.9 mph - N/A Rain Light Rain Showers
8:30 PM 39.2 °F 33.1 °F 37.4 °F 93% 29.80 in 6.2 mi SW 8.9 mph - N/A Rain Light Rain Showers
9:00 PM 39.2 °F 33.1 °F 37.4 °F 93% 29.80 in 5.6 mi SSW 8.9 mph - N/A Rain Light Rain Showers
9:30 PM 39.2 °F 33.1 °F 37.4 °F 93% 29.80 in 5.0 mi South 8.9 mph - N/A Rain Light Rain Showers
10:00 PM 39.2 °F 33.1 °F 37.4 °F 93% 29.80 in 5.6 mi SSW 8.9 mph - N/A Rain Light Rain Showers
10:30 PM 39.2 °F 33.1 °F 37.4 °F 93% 29.80 in 6.2 mi South 8.9 mph - N/A Rain Light Rain Showers
11:00 PM 39.2 °F 34.4 °F 37.4 °F 93% 29.80 in 6.2 mi SSW 6.7 mph - N/A   Overcast
11:30 PM 39.2 °F 34.4 °F 37.4 °F 93% 29.80 in 6.2 mi SW 6.7 mph - N/A   Mostly Cloudy